Tracking 30918 objects as of 2-Jul-2025
HD Live streaming from Space Station
objects crossing your sky now

DIAMANT R/B


10-day predictions


NORAD ID: 2017
Int'l Code: 1966-013B
Perigee: 501.6 km
Apogee: 2,100.4 km
Inclination: 34.1 °
Period: 111.5 minutes
Semi major axis: 7671 km
RCS: 0.7635 m2 (medium)
Launch date: February 17, 1966
Source: France (FR)
Launch site: HAMMA GUIRA SPACE TRACK RANGE (HGSTR)

Note: This is a ROCKET BODY
Your satellite tracking list
YAOGAN-32 A
Track 1 satellite(s)




NASA's NSSDC Master Catalog

Two Line Element Set (TLE):
1  2017U 66013B   25183.11782126  .00000704  00000-0  19009-3 0  9996
2  2017  34.0602 203.1248 1041948  89.1473 282.8184 12.91939623724074
Source of the keplerian elements: AFSPC